When you browse on this site, cookies collect data to enhance your experience and personalize the content and advertising you see.
Visit our Privacy Policy to learn more. By continuing to use the site, you agree to this use of cookies and data.
  • In Hungary
  • List of Countries
  • For 7 days
  • Water Temperature
  • Satellite Maps
  • Weather Map
  • News
  • Weather Widgets
  • user-avatar
    Login

    Hourly Weather Estelí

    Today, 26 March, Tuesday

    Time Temperature Precipitation Wind Pressure Humidity
    00:00 +20°C° 0 mm 2 mps 687 mmHg 82%
    01:00 +20°C° 0 mm 2 mps 686 mmHg 84%
    02:00 +20°C° 0 mm 2 mps 686 mmHg 86%
    03:00 +19°C° 0 mm 2 mps 686 mmHg 88%
    04:00 +19°C° 0 mm 2 mps 686 mmHg 89%
    05:00 +19°C° 0 mm 2 mps 686 mmHg 89%
    06:00 +19°C° 0 mm 3 mps 686 mmHg 89%
    07:00 +21°C° 0 mm 3 mps 687 mmHg 74%
    08:00 +25°C° 0 mm 4 mps 688 mmHg 60%
    09:00 +27°C° 0 mm 5 mps 689 mmHg 45%
    10:00 +29°C° 0 mm 5 mps 689 mmHg 40%
    11:00 +32°C° 0 mm 6 mps 688 mmHg 34%
    12:00 +34°C° 0 mm 6 mps 688 mmHg 28%
    13:00 +34°C° 0 mm 6 mps 687 mmHg 28%
    14:00 +34°C° 0 mm 6 mps 687 mmHg 27%
    15:00 +34°C° 0 mm 6 mps 686 mmHg 27%
    16:00 +32°C° 0 mm 5 mps 686 mmHg 31%
    17:00 +30°C° 0 mm 5 mps 686 mmHg 34%
    18:00 +28°C° 0 mm 4 mps 686 mmHg 38%
    19:00 +27°C° 0 mm 4 mps 686 mmHg 42%
    20:00 +26°C° 0 mm 5 mps 687 mmHg 47%
    21:00 +25°C° 0 mm 5 mps 687 mmHg 51%
    22:00 +23°C° 0 mm 4 mps 687 mmHg 59%
    23:00 +22°C° 0 mm 4 mps 687 mmHg 66%

    Tomorrow, 27 March, Wednesday

    Time Temperature Precipitation Wind Pressure Humidity
    00:00 +21°C° 0 mm 4 mps 687 mmHg 73%
    01:00 +20°C° 0 mm 3 mps 687 mmHg 76%
    02:00 +19°C° 0 mm 3 mps 686 mmHg 79%
    03:00 +18°C° 0 mm 3 mps 686 mmHg 82%
    04:00 +18°C° 0 mm 3 mps 686 mmHg 82%
    05:00 +18°C° 0 mm 3 mps 686 mmHg 82%
    06:00 +17°C° 0 mm 3 mps 686 mmHg 81%
    07:00 +20°C° 0 mm 4 mps 687 mmHg 69%
    08:00 +23°C° 0 mm 6 mps 688 mmHg 56%
    09:00 +27°C° 0 mm 7 mps 689 mmHg 43%
    10:00 +29°C° 0 mm 7 mps 689 mmHg 40%
    11:00 +32°C° 0 mm 7 mps 688 mmHg 37%
    12:00 +33°C° 0 mm 8 mps 688 mmHg 33%
    13:00 +33°C° 0 mm 8 mps 687 mmHg 34%
    14:00 +33°C° 0 mm 8 mps 686 mmHg 35%
    15:00 +33°C° 0 mm 8 mps 686 mmHg 35%
    16:00 +30°C° 0 mm 7 mps 686 mmHg 41%
    17:00 +28°C° 0 mm 6 mps 686 mmHg 47%
    18:00 +26°C° 0 mm 6 mps 686 mmHg 53%
    19:00 +24°C° 0 mm 6 mps 687 mmHg 58%
    20:00 +23°C° 0 mm 5 mps 687 mmHg 63%
    21:00 +22°C° 0 mm 5 mps 688 mmHg 68%
    22:00 +21°C° 0 mm 5 mps 688 mmHg 70%
    23:00 +21°C° 0 mm 4 mps 688 mmHg 71%

    Day after tomorrow, 28 March, Thursday

    Time Temperature Precipitation Wind Pressure Humidity
    00:00 +20°C° 0 mm 4 mps 688 mmHg 73%
    01:00 +19°C° 0 mm 4 mps 687 mmHg 75%
    02:00 +19°C° 0 mm 3 mps 687 mmHg 77%
    03:00 +18°C° 0 mm 3 mps 686 mmHg 79%
    04:00 +18°C° 0 mm 3 mps 686 mmHg 79%
    05:00 +17°C° 0 mm 3 mps 687 mmHg 80%
    06:00 +17°C° 0 mm 3 mps 687 mmHg 80%
    07:00 +20°C° 0 mm 4 mps 688 mmHg 67%
    08:00 +23°C° 0 mm 5 mps 689 mmHg 54%
    09:00 +27°C° 0 mm 5 mps 690 mmHg 41%
    10:00 +29°C° 0 mm 6 mps 689 mmHg 36%
    11:00 +30°C° 0 mm 6 mps 689 mmHg 32%
    12:00 +33°C° 0 mm 6 mps 688 mmHg 28%
    13:00 +33°C° 0 mm 6 mps 688 mmHg 27%
    14:00 +34°C° 0 mm 6 mps 687 mmHg 27%
    15:00 +34°C° 0 mm 5 mps 686 mmHg 27%
    16:00 +32°C° 0 mm 6 mps 687 mmHg 33%
    17:00 +29°C° 0 mm 6 mps 687 mmHg 40%
    18:00 +27°C° 0 mm 6 mps 687 mmHg 46%
    19:00 +26°C° 0 mm 5 mps 687 mmHg 53%
    20:00 +23°C° 0 mm 5 mps 688 mmHg 60%
    21:00 +22°C° 0 mm 5 mps 688 mmHg 68%
    22:00 +21°C° 0 mm 4 mps 688 mmHg 72%
    23:00 +20°C° 0 mm 4 mps 688 mmHg 77%

    29 March, Friday

    Time Temperature Precipitation Wind Pressure Humidity
    00:00 +19°C° 0 mm 3 mps 687 mmHg 82%
    01:00 +19°C° 0 mm 3 mps 687 mmHg 83%
    02:00 +19°C° 0 mm 3 mps 687 mmHg 84%
    03:00 +18°C° 0 mm 2 mps 686 mmHg 85%
    04:00 +18°C° 0 mm 2 mps 687 mmHg 85%
    05:00 +18°C° 0 mm 2 mps 687 mmHg 86%
    06:00 +17°C° 0 mm 2 mps 687 mmHg 86%
    07:00 +20°C° 0 mm 3 mps 688 mmHg 73%
    08:00 +24°C° 0 mm 3 mps 689 mmHg 59%
    09:00 +26°C° 0 mm 3 mps 690 mmHg 46%
    10:00 +29°C° 0 mm 3 mps 689 mmHg 40%
    11:00 +31°C° 0 mm 2 mps 689 mmHg 34%
    12:00 +34°C° 0 mm 2 mps 688 mmHg 28%
    13:00 +34°C° 0 mm 2 mps 688 mmHg 28%
    14:00 +34°C° 0 mm 2 mps 687 mmHg 28%
    15:00 +34°C° 0 mm 2 mps 686 mmHg 27%
    16:00 +32°C° 0 mm 2 mps 686 mmHg 30%
    17:00 +30°C° 0 mm 2 mps 686 mmHg 33%
    18:00 +29°C° 0 mm 3 mps 686 mmHg 36%
    19:00 +28°C° 0 mm 2 mps 687 mmHg 38%
    20:00 +27°C° 0 mm 2 mps 687 mmHg 40%
    21:00 +25°C° 0 mm 2 mps 688 mmHg 41%
    22:00 +24°C° 0 mm 2 mps 688 mmHg 48%
    23:00 +23°C° 0 mm 2 mps 687 mmHg 55%

    30 March, Saturday

    Time Temperature Precipitation Wind Pressure Humidity
    00:00 +21°C° 0 mm 2 mps 687 mmHg 61%
    01:00 +20°C° 0 mm 2 mps 687 mmHg 66%
    02:00 +19°C° 0 mm 2 mps 686 mmHg 71%
    03:00 +18°C° 0 mm 2 mps 686 mmHg 76%
    04:00 +17°C° 0 mm 2 mps 686 mmHg 78%
    05:00 +17°C° 0 mm 2 mps 686 mmHg 80%
    06:00 +17°C° 0 mm 2 mps 686 mmHg 82%
    07:00 +20°C° 0 mm 2 mps 687 mmHg 69%
    08:00 +25°C° 0 mm 2 mps 688 mmHg 55%
    09:00 +28°C° 0 mm 2 mps 689 mmHg 41%
    10:00 +31°C° 0 mm 1 mps 689 mmHg 35%
    11:00 +33°C° 0 mm 1 mps 688 mmHg 29%
    12:00 +36°C° 0 mm 1 mps 688 mmHg 22%
    13:00 +36°C° 0 mm 1 mps 687 mmHg 21%
    14:00 +37°C° 0 mm 2 mps 686 mmHg 20%
    15:00 +37°C° 0 mm 2 mps 685 mmHg 19%
    16:00 +35°C° 0 mm 2 mps 685 mmHg 23%
    17:00 +32°C° 0 mm 2 mps 685 mmHg 27%
    18:00 +30°C° 0 mm 2 mps 685 mmHg 30%
    19:00 +28°C° 0 mm 2 mps 685 mmHg 37%
    20:00 +27°C° 0 mm 1 mps 686 mmHg 43%
    21:00 +25°C° 0 mm 1 mps 686 mmHg 50%
    22:00 +24°C° 0.1 mm 1 mps 686 mmHg 57%
    23:00 +24°C° 0.1 mm 1 mps 686 mmHg 65%

    31 March, Sunday

    Time Temperature Precipitation Wind Pressure Humidity
    00:00 +23°C° 0.1 mm 1 mps 686 mmHg 72%
    01:00 +23°C° 0.1 mm 1 mps 686 mmHg 76%
    02:00 +22°C° 0.1 mm 1 mps 686 mmHg 79%
    03:00 +21°C° 0.1 mm 1 mps 685 mmHg 83%
    04:00 +21°C° 0 mm 1 mps 686 mmHg 84%
    05:00 +21°C° 0 mm 1 mps 686 mmHg 85%
    06:00 +21°C° 0 mm 1 mps 686 mmHg 86%
    07:00 +23°C° 0 mm 1 mps 687 mmHg 76%
    08:00 +25°C° 0 mm 2 mps 688 mmHg 67%
    09:00 +27°C° 0 mm 2 mps 688 mmHg 57%
    10:00 +29°C° 0 mm 2 mps 688 mmHg 48%
    11:00 +32°C° 0 mm 2 mps 688 mmHg 38%
    12:00 +36°C° 0 mm 2 mps 688 mmHg 29%
    13:00 +36°C° 0 mm 2 mps 687 mmHg 27%
    14:00 +36°C° 0 mm 2 mps 686 mmHg 26%
    15:00 +37°C° 0 mm 2 mps 685 mmHg 24%
    16:00 +35°C° 0 mm 2 mps 685 mmHg 28%
    17:00 +32°C° 0 mm 2 mps 685 mmHg 32%
    18:00 +30°C° 0 mm 2 mps 685 mmHg 36%
    19:00 +28°C° 0 mm 2 mps 685 mmHg 44%
    20:00 +27°C° 0 mm 2 mps 686 mmHg 52%
    21:00 +25°C° 0 mm 2 mps 686 mmHg 61%
    22:00 +25°C° 0.1 mm 1 mps 686 mmHg 66%
    23:00 +24°C° 0.1 mm 1 mps 686 mmHg 72%
    Show more